Tracking 19149 objects as of 21-Apr-2018
HD Live streaming from Space Station
objects crossing your sky now

FENGYUN 1C DEB

Track FENGYUN 1C DEB now!
10-day predictions


NORAD ID: 32454
Int'l Code: 1999-025DBS
Perigee: 660.3 km
Apogee: 1,081.9 km
Inclination: 98.5 °
Period: 102.2 minutes
Semi major axis: 7242 km
RCS: 0.009 m2 (small)
Launch date: May 10, 1999
Source: People's Republic of China (PRC)
Launch site: Taiyaun Space Center, China (TSC)

Note: This is SATELLITE DEBRIS
aabbcc
Your satellite tracking list
Your tracking list is empty




NASA's NSSDC Master Catalog

Two Line Element Set (TLE):
1 32454U 99025DBS 18089.49117653  .00001178  00000-0  48196-3 0  9993
2 32454  98.5226 189.8615 0291061 302.5469  54.7891 14.08668103549210
Source of the keplerian elements: AFSPC